Total_Precipitation_Accumulation
8.36 7.58 5.71 5.02 3.66 2.81 3.96 5.42 6.09 5.61 3.90 3.42 3.39 2.74 2.35 2.12 1.81 1.51 1.41 0.92 0.52 0.48 0.05 0.01 0.00 0.00 0.00 0.02 0.04 0.01 0.06 0.10
7.63 8.94 8.46 3.91 2.83 2.27 2.98 4.40 5.94 6.80 5.91 4.75 3.29 2.18 2.33 3.01 2.90 2.22 1.71 1.21 0.78 0.54 0.43 0.17 0.06 0.04 0.02 0.01 0.00 0.00 0.00 0.03
4.89 7.54 6.16 3.45 1.95 1.51 1.83 3.59 3.55 3.13 3.16 4.03 3.09 2.18 1.71 1.33 1.69 1.67 1.39 1.26 0.93 0.70 0.46 0.24 0.18 0.16 0.11 0.05 0.00 0.00 0.00 0.00
1.91 3.61 4.19 2.92 1.75 1.42 1.13 1.80 2.75 3.15 1.80 1.93 1.89 1.88 1.63 1.04 0.88 0.96 1.17 0.93 0.75 0.69 0.32 0.26 0.24 0.09 0.05 0.05 0.01 0.00 0.00 0.00
0.97 1.49 1.80 2.25 1.81 1.48 1.36 1.27 1.34 2.96 1.97 0.97 1.07 1.25 1.07 0.89 0.50 0.65 0.87 0.86 0.45 0.31 0.19 0.18 0.21 0.07 0.01 0.03 0.00 0.00 0.00 0.00
0.58 0.60 0.67 0.95 1.29 1.25 0.93 1.04 1.12 1.40 1.78 0.86 0.65 0.89 0.47 0.49 0.27 0.29 0.40 0.45 0.37 0.26 0.15 0.21 0.20 0.15 0.01 0.00 0.00 0.00 0.00 0.00
0.32 0.36 0.30 0.47 0.67 0.93 0.91 0.65 0.76 0.86 1.20 0.89 0.46 0.44 0.29 0.30 0.16 0.16 0.16 0.22 0.43 0.43 0.31 0.26 0.23 0.13 0.01 0.00 0.00 0.00 0.00 0.00
0.28 0.34 0.29 0.39 0.69 0.79 0.94 0.86 0.67 0.77 0.74 0.68 0.44 0.37 0.29 0.21 0.13 0.15 0.10 0.18 0.38 0.49 0.46 0.38 0.27 0.10 0.04 0.00 0.00 0.00 0.00 0.00
0.28 0.33 0.44 0.43 0.46 0.54 0.83 0.91 0.74 0.63 0.51 0.53 0.47 0.39 0.28 0.18 0.11 0.12 0.14 0.15 0.32 0.45 0.56 0.62 0.38 0.16 0.02 0.00 0.00 0.00 0.00 0.00
0.20 0.23 0.65 0.53 0.46 0.42 0.58 0.84 0.86 0.65 0.51 0.51 0.41 0.28 0.26 0.19 0.12 0.11 0.14 0.20 0.36 0.41 0.43 0.64 0.39 0.13 0.01 0.00 0.00 0.00 0.00 0.00
0.53 0.34 0.43 0.61 0.63 0.49 0.47 0.62 0.75 0.63 0.46 0.69 0.72 0.64 0.30 0.26 0.26 0.17 0.17 0.28 0.41 0.44 0.39 0.47 0.27 0.11 0.00 0.00 0.00 0.00 0.00 0.00
0.35 0.47 0.43 0.43 0.44 0.33 0.42 0.53 0.71 0.51 0.39 0.76 0.78 1.19 1.01 0.38 0.23 0.15 0.17 0.22 0.39 0.49 0.43 0.31 0.16 0.04 0.00 0.00 0.00 0.00 0.00 0.00
0.10 0.26 0.24 0.37 0.34 0.22 0.29 0.34 0.54 0.37 0.41 0.45 0.91 0.98 1.73 0.97 0.49 0.19 0.15 0.17 0.21 0.32 0.40 0.24 0.22 0.04 0.00 0.01 0.01 0.00 0.00 0.00
0.02 0.04 0.10 0.19 0.24 0.24 0.12 0.13 0.22 0.29 0.36 0.44 0.59 0.75 1.02 1.33 0.74 0.49 0.25 0.23 0.20 0.32 0.31 0.19 0.17 0.04 0.00 0.01 0.03 0.03 0.01 0.00
0.02 0.03 0.05 0.07 0.14 0.25 0.18 0.21 0.19 0.25 0.42 0.63 0.44 0.48 0.76 1.00 0.92 0.71 0.45 0.34 0.19 0.14 0.23 0.13 0.07 0.05 0.00 0.00 0.02 0.02 0.02 0.01
0.06 0.04 0.04 0.03 0.04 0.07 0.07 0.14 0.13 0.14 0.15 0.30 0.48 0.29 0.51 0.91 0.79 0.68 0.48 0.33 0.33 0.17 0.18 0.17 0.10 0.04 0.03 0.01 0.00 0.03 0.10 0.11
0.03 0.04 0.05 0.03 0.04 0.03 0.05 0.07 0.10 0.08 0.05 0.08 0.32 0.47 0.31 0.62 0.73 0.78 0.57 0.46 0.41 0.36 0.26 0.27 0.23 0.25 0.14 0.06 0.03 0.02 0.02 0.13
0.06 0.06 0.07 0.09 0.09 0.09 0.05 0.10 0.08 0.06 0.06 0.08 0.13 0.31 0.70 0.79 0.86 0.76 0.81 0.63 0.61 0.67 0.58 0.39 0.28 0.23 0.31 0.18 0.18 0.16 0.09 0.07
0.03 0.06 0.16 0.14 0.10 0.09 0.11 0.09 0.09 0.08 0.12 0.22 0.24 0.24 0.51 0.68 0.81 0.82 0.80 0.82 0.67 0.65 0.66 0.49 0.44 0.34 0.33 0.37 0.32 0.22 0.13 0.11
0.02 0.08 0.20 0.22 0.17 0.14 0.16 0.21 0.21 0.23 0.30 0.44 0.47 0.36 0.33 0.54 0.71 0.89 0.77 0.76 0.69 0.58 0.56 0.51 0.50 0.49 0.44 0.36 0.32 0.26 0.21 0.21